Terminal Aerodrome Forecast
Issued by NWS Houston/Galveston TX

Home | Current Version | Previous Version | Text Only | Print | Product List | Glossary On
Versions: 1 2 3 4 5 6 7 8 9 10 11 12 13 14 15 16 17 18 19 20 21 22 23 24 25 26 27 28 29 30 31 32 33 34 35 36 37 38 39 40 41 42 43 44 45 46 47 48 49 50
000
FTUS44 KHGX 311527 AAA
TAFHOU
TAF AMD
KHOU 311527Z 3115/0112 20006KT P6SM FEW020 BKN170 BKN250
     FM312200 18008KT P6SM VCTS BKN040CB
      TEMPO 0100/0104 VRB10G25KT 4SM TSRA BKN035CB
     FM010700 VRB03KT P6SM VCSH SCT015 BKN040=

USA.gov is the U.S. government's official web portal to all federal, state and local government web resources and services.